Location: ??????????
(54.7560°N, 39.1389°E)
Time: 06:25:33
(UTC+00:00)

Cosmos 2056 Rocket - Pass Details

Date: 19 May 2025
Orbit: 739 x 796 km, 74.0° (Epoch: 15 June)

Event Time Altitude Azimuth Distance (km) Brightness Sun altitude
Rises 20:58:58 0° 332° (NNW) 3,294 8.1 -15.1°
Reaches altitude 10° 21:01:24 10° 335° (NNW) 2,354 7.2 -15.2°
Maximum altitude 21:06:45 72° 60° (ENE) 817 3.7 -15.2°
Enters shadow 21:10:42 18° 143° (SE) 1,815 5.0 -15.3°
